CP7 (DAVE) (43615 NORAD) Tracking and Keplerian Element Data

This shows tracking and keplerian element data for the satellite.

Feedback or suggestion? Click here.




ElementValue
Catalog43615
NameCP7 (DAVE)
Epoch Orbit3842
Epoch Day143.76238388
Epoch Year2019
RAAN352.9833
Inclination93.0245
Eccentricity0.0018379
Argument of Perigee51.5004
Mean Anonmoly308.7894
Mean Motion15.37353313
Decay Rate1.551E-05
L11 43615U 18070C 19143.76238388 .00001551 00000-0 42371-4 0 9991
L22 43615 93.0245 352.9833 0018379 51.5004 308.7894 15.37353313 38420

Live tracking and technical data element details for CP7 (DAVE) (NORAD 43615). CP7 (DAVE) can be tracked NOW for your location showing map with azimuth and elevation plus other details from your city location.

Track the satellite on the map from your city or location and see movement details for azimuth, elevation, latitude, longitude, range, height, and movement on the map or in text.







IsCatalogInMostPopularTable: catalog: 43615, numindb: 120
Update: records affected: 1



GetName: 43615 CP7 (DAVE)

Hit Count: updated at: Fri, 24 May 2019 21:52:12 GMT